{"data":{"norad_id":46790,"epoch":"2026-05-25T00:00:02.000160Z","epoch_age_seconds":78521,"freshness":"FRESH","line1":"1 46790U 20074BD  26145.00002315  .00116771  00000+0  48274-3 0  9998","line2":"2 46790  53.0372 263.5984 0008064 310.3061 328.1496 15.84996354  6011","mean_motion":15.84996354,"eccentricity":0.0008064,"inclination_deg":53.0372,"raan_deg":263.5984,"arg_perigee_deg":310.3061,"mean_anomaly_deg":328.1496,"bstar":0.00048274,"rev_number":601,"period_min":90.851944003904,"perigee_km":310.9365807278,"apogee_km":321.73342517416,"semimajor_km":6694.472002951,"source":"CELESTRAK","updated_at":"2026-05-25T13:38:16.520282Z"}}